Date,TemperatureHighF,TemperatureAvgF,TemperatureLowF,DewpointHighF,DewpointAvgF,DewpointLowF,HumidityHigh,HumidityAvg,HumidityLow,PressureMaxIn,PressureMinIn,WindSpeedMaxMPH,WindSpeedAvgMPH,GustSpeedMaxMPH,PrecipitationSumIn
2013-1-2,21.2,21.2,21.0,16.6,16.2,15.5,82,81,79,29.15,29.15,7,6,6,0.00
2013-1-3,21.0,14.5,9.5,15.5,4.0,-4.2,83,64,49,29.32,29.15,8,5,0,0.00
2013-1-4,20.3,18.5,15.6,12.8,12.2,10.8,83,76,72,29.18,29.12,8,7,0,0.00
2013-1-6,30.0,19.4,12.7,13.1,9.0,5.1,83,66,44,29.26,29.09,11,6,11,0.00
2013-1-7,41.4,29.8,19.9,23.6,20.2,13.3,91,68,49,29.09,28.94,18,7,18,0.00
2013-1-8,38.1,28.2,16.2,29.0,22.5,14.2,98,80,57,29.03,28.82,16,6,16,0.00
2013-1-9,38.5,31.9,24.6,26.9,20.9,15.0,87,65,49,29.44,28.97,22,7,22,0.04
2013-1-10,44.6,35.0,28.9,34.4,26.3,19.0,98,73,41,29.38,28.79,18,8,18,0.00
2013-1-11,41.4,37.6,34.9,40.8,37.1,34.4,98,98,98,28.79,28.41,14,6,14,0.00
2013-1-12,39.2,15.6,4.1,38.3,4.5,-9.3,98,62,51,29.15,28.44,24,10,24,0.00
2013-1-13,14.0,5.5,1.8,0.4,-7.9,-11.5,54,53,53,29.32,29.09,14,6,14,0.00
2013-1-14,19.9,9.3,3.4,2.9,-5.4,-9.9,53,51,47,29.50,29.29,12,4,12,0.04
2013-1-15,34.2,21.6,9.3,16.0,9.3,-5.9,76,60,46,29.35,28.91,14,5,14,0.05
2013-1-16,38.7,26.7,12.0,32.3,17.7,-0.3,97,70,44,29.29,28.70,13,9,13,0.00
2013-1-17,23.7,13.1,3.2,9.6,0.1,-8.6,72,56,44,29.47,29.29,12,4,12,0.00
2013-1-18,44.6,31.5,17.1,28.6,22.7,9.1,90,71,51,29.38,28.76,15,7,15,0.00
2013-1-19,42.4,24.3,2.5,31.3,14.8,-12.8,98,68,47,29.32,28.70,33,10,33,0.00
2013-1-20,12.7,3.8,-0.9,-3.3,-11.5,-15.9,48,48,48,29.50,29.29,15,6,15,0.00
2013-1-21,1.0,0.4,-6.9,-14.1,-14.7,-21.5,48,48,48,29.41,29.32,5,3,5,0.00
2013-1-22,6.4,-3.3,-11.7,-9.1,-18.1,-26.0,48,48,48,29.47,29.32,6,3,6,0.00
2013-1-23,20.7,10.5,0.3,7.0,-5.3,-16.5,64,48,44,29.56,29.18,22,6,22,0.00
2013-1-24,0.3,0.3,0.3,-16.5,-16.5,-16.5,44,44,44,29.56,29.56,10,0,10,0.00
2013-1-25,15.1,2.9,0.3,-2.0,-13.7,-16.5,47,45,44,29.56,29.18,14,1,14,0.00
2013-1-26,26.2,13.6,-1.3,9.5,-2.7,-16.7,54,47,44,29.44,29.18,15,5,15,0.00
2013-1-27,33.4,30.6,24.8,32.0,22.7,9.2,98,75,50,29.18,28.82,14,5,14,0.00
2013-1-28,38.1,33.0,30.9,34.7,32.0,30.4,98,96,82,28.97,28.67,12,3,12,0.00
2013-1-29,36.5,32.8,28.0,33.1,29.1,20.3,98,87,72,28.79,28.58,13,5,13,0.00
2013-1-30,28.0,17.9,8.1,20.5,7.9,-2.3,76,65,56,28.82,28.64,17,10,17,0.00
2013-1-31,8.1,1.4,-8.3,-2.3,-8.6,-17.9,62,62,62,29.32,28.82,22,9,22,0.00
2013-2-1,7.9,-1.2,-13.0,-2.5,-11.1,-22.3,62,62,62,29.38,29.09,8,7,8,0.00
2013-2-2,20.5,8.9,1.9,3.4,-5.2,-8.4,62,53,44,29.24,29.00,6,4,6,0.00
2013-2-3,18.5,11.4,4.3,3.9,-3.5,-12.4,57,51,45,29.15,29.00,0,0,0,0.00
2013-2-4,29.7,12.8,9.3,11.2,-2.3,-9.0,85,51,35,29.12,28.79,14,2,14,0.00
2013-2-5,34.7,23.0,5.7,25.4,15.7,0.9,97,75,51,29.15,28.70,15,5,15,0.00
2013-2-6,33.1,16.9,2.5,19.1,9.8,-2.3,80,74,55,29.18,29.00,10,4,10,0.00
2013-2-7,26.2,23.9,23.7,20.1,17.5,17.3,79,76,76,29.32,29.00,14,5,14,0.00
2013-2-8,33.8,27.5,21.7,19.9,14.3,11.5,79,58,45,29.44,29.26,5,2,5,0.00
2013-2-9,33.3,31.3,28.8,29.1,18.9,12.7,96,63,45,29.29,28.97,15,5,15,0.00
2013-2-10,35.6,31.4,28.6,34.1,30.0,24.9,98,94,86,28.97,28.29,15,5,15,0.00
2013-2-11,34.0,24.9,16.3,33.5,17.4,9.5,98,73,59,29.09,28.32,17,10,17,0.00
2013-2-12,43.2,26.4,14.2,23.1,16.4,8.1,88,67,44,29.12,28.88,13,5,13,0.00
2013-2-13,45.1,30.2,17.4,32.9,22.6,14.0,98,75,47,28.88,28.58,13,4,13,0.00
2013-2-14,33.3,32.4,31.1,32.8,31.9,30.6,98,98,98,28.76,28.61,12,7,12,0.00
2013-2-15,30.0,10.2,-1.7,10.2,-5.7,-16.2,67,48,42,29.38,29.24,9,2,13,0.00
2013-2-16,32.9,18.1,7.5,11.4,0.1,-7.7,49,45,37,29.24,29.15,7,2,7,0.00
2013-2-17,10.8,10.2,9.7,-4.7,-5.2,-5.9,49,49,49,29.15,29.15,8,4,8,0.00
2013-2-18,34.5,34.0,10.9,18.2,17.7,-4.5,51,51,49,29.15,28.88,6,4,6,0.00
2013-2-19,10.8,4.4,-2.7,-0.1,-6.1,-12.9,61,61,61,29.44,29.18,21,8,21,0.00
2013-2-20,-2.2,-2.5,-3.1,-12.4,-12.7,-13.4,61,61,61,29.47,29.41,7,4,7,0.00
2013-2-21,37.9,23.1,19.8,22.8,13.1,5.5,93,67,42,29.41,28.91,7,3,12,0.00
2013-2-22,35.8,23.5,18.3,20.7,16.9,13.4,93,77,52,28.97,28.88,6,2,6,0.00
2013-2-23,38.7,23.0,10.4,21.1,14.3,8.0,90,71,49,29.06,28.91,12,3,12,0.00
2013-2-24,49.5,23.2,2.8,26.4,12.9,0.6,90,69,38,29.18,29.00,7,2,7,0.00
2013-2-25,52.2,31.4,16.5,28.8,20.5,12.6,88,66,40,29.18,29.09,6,2,6,0.00
2013-2-26,44.8,28.7,14.9,26.6,20.6,10.7,92,73,49,29.12,28.94,13,4,13,0.00
2013-2-27,29.8,29.6,29.3,23.6,23.1,22.2,78,77,74,28.97,28.91,10,7,10,0.00
2013-2-28,34.7,26.7,22.3,18.9,14.1,10.3,64,59,50,29.38,29.20,8,3,11,0.00
2013-3-1,42.1,22.2,7.2,19.9,9.4,-0.3,84,59,31,29.44,29.24,9,2,10,0.00
2013-3-2,45.0,26.8,15.1,15.7,2.9,-16.2,57,39,10,29.35,29.06,8,2,11,0.00
2013-3-3,41.7,31.0,16.2,13.9,9.2,7.1,67,40,28,29.41,29.00,8,3,14,0.00
2013-3-4,30.2,25.3,22.5,22.4,16.8,9.4,93,72,47,29.09,29.00,16,5,16,0.00
2013-3-5,36.5,27.9,21.7,23.9,21.0,16.8,94,76,57,29.35,29.03,13,5,13,0.00
2013-3-6,21.7,21.7,21.7,16.8,16.8,16.8,81,81,81,29.35,29.35,5,4,5,0.00
2013-3-7,42.4,31.1,22.6,19.9,15.3,12.2,74,53,40,29.44,29.35,13,6,13,0.00
2013-3-8,48.4,33.1,19.0,28.4,24.0,1.2,84,70,45,29.38,29.12,13,5,13,0.13
2013-3-9,37.6,35.6,33.6,36.8,34.5,27.1,98,96,73,29.15,28.76,15,6,15,25.23
2013-3-10,35.8,33.6,30.2,34.6,29.1,24.1,98,83,75,29.00,28.82,22,9,22,0.50
2013-3-11,32.4,28.0,21.7,24.5,19.7,11.2,79,71,57,28.94,28.82,15,8,15,0.00
2013-3-12,31.5,25.0,18.2,19.3,13.1,7.1,76,61,47,29.32,28.88,20,9,20,0.04
2013-3-13,39.7,24.3,11.1,16.8,11.7,6.4,82,61,36,29.47,29.24,10,5,10,0.00
2013-3-14,24.6,24.3,24.1,16.9,16.1,15.4,72,70,69,29.32,29.24,8,6,8,0.00
2013-3-15,35.8,32.3,25.5,32.8,30.1,24.5,98,92,84,29.00,28.88,13,4,13,2.64
2013-3-16,33.8,23.3,12.9,24.5,12.5,1.6,96,65,43,29.32,28.94,13,7,13,0.34
2013-3-17,35.6,19.4,7.9,18.0,5.1,-3.1,68,54,40,29.32,28.94,15,6,15,0.00
2013-3-18,27.1,27.1,27.1,18.0,18.0,18.0,68,68,68,28.97,28.97,8,8,8,0.00
2013-3-29,57.6,47.4,29.5,36.0,31.8,21.8,83,56,42,30.39,29.80,13,3,13,0.17
2013-3-30,60.4,45.7,32.9,42.8,37.4,31.1,97,75,50,30.15,29.91,19,5,19,0.00
2013-3-31,39.9,33.1,32.4,32.6,31.9,24.7,98,96,57,29.97,29.88,18,3,18,0.17
2013-4-7,43.3,42.2,39.7,41.3,39.7,20.7,97,91,46,29.91,29.82,12,3,12,0.59
2013-4-8,50.7,42.9,40.5,43.4,41.2,38.0,98,94,73,30.09,29.74,12,2,12,0.33
2013-4-9,45.1,37.5,32.2,37.8,33.0,24.4,98,85,55,30.24,30.06,18,5,18,0.53
2013-4-10,38.8,34.2,29.5,31.5,27.5,21.1,98,78,52,30.30,29.94,18,4,18,0.12
2013-4-11,38.1,34.7,31.1,34.0,31.9,26.5,98,90,71,29.97,29.71,12,4,12,0.50
2013-4-12,41.4,31.3,29.5,30.4,29.4,25.9,98,93,63,29.85,29.71,10,3,10,0.13
2013-4-13,46.8,35.7,29.3,27.8,22.0,19.6,76,58,48,30.06,29.88,8,1,8,0.29
2013-4-14,34.5,33.3,31.6,34.0,30.9,21.9,98,91,65,30.03,29.53,15,4,15,0.34
2013-4-15,46.9,37.3,32.2,34.4,27.2,23.0,98,67,50,30.06,29.56,20,7,20,0.45
2013-4-16,54.0,39.7,32.7,30.5,26.1,22.3,82,60,38,30.41,30.06,14,4,14,0.00
2013-4-17,42.1,38.7,33.4,36.5,31.2,0.0,98,75,62,30.39,30.06,12,4,14,0.08
2013-4-18,36.9,33.3,31.5,36.3,32.7,31.0,98,98,94,30.06,29.56,17,5,17,0.50
2013-4-19,43.9,34.4,29.7,31.0,23.8,15.3,98,67,43,30.06,29.53,24,7,24,0.50
2013-4-20,48.6,36.1,29.5,15.3,7.3,-12.1,55,33,8,30.39,30.06,6,0,6,0.50
2013-4-21,47.7,37.2,33.3,47.1,32.5,0.0,98,85,44,30.41,30.12,13,3,13,0.50
2013-4-22,47.3,37.3,32.0,38.5,33.0,27.7,98,86,52,30.30,30.18,16,3,16,18.85
2013-4-23,48.6,37.3,28.6,31.7,26.1,0.0,98,68,38,30.24,30.12,15,3,15,3.90
2013-4-24,55.4,38.1,24.6,35.2,27.0,18.0,97,68,39,30.15,29.97,23,5,23,0.50
2013-4-25,61.0,45.5,33.3,32.5,29.2,24.4,90,57,31,30.33,30.06,13,4,13,23.83
2013-4-26,76.8,55.6,44.2,43.9,36.8,27.6,72,51,29,30.21,30.03,23,6,23,0.08
2013-4-27,82.0,58.3,39.7,47.1,39.1,29.6,88,53,21,30.24,29.97,13,3,13,0.13
2013-4-28,85.1,65.1,51.4,54.8,47.6,43.4,83,56,30,30.00,29.74,26,7,26,0.00
2013-4-29,56.5,55.0,53.4,53.7,51.7,50.0,95,89,83,29.88,29.82,4,4,4,0.00
2013-4-30,72.0,65.7,58.3,60.0,51.5,26.9,87,63,22,30.03,29.47,16,7,16,0.13
2013-5-1,57.2,44.1,34.9,40.9,35.8,31.4,98,76,42,30.44,30.06,15,6,15,0.00
2013-5-2,51.1,40.3,34.3,33.8,27.2,22.0,97,62,41,30.62,30.47,16,7,16,0.00
2013-5-3,37.6,34.5,32.0,33.8,28.8,21.6,95,80,53,30.50,30.24,14,8,14,0.00
2013-5-4,56.1,38.7,33.1,41.5,35.6,31.7,98,90,56,30.27,30.18,11,4,11,0.00
2013-5-5,71.6,52.2,38.7,48.6,40.2,35.3,94,67,43,30.30,30.12,9,3,9,0.00
2013-5-6,82.6,66.1,48.9,51.5,45.9,39.4,91,53,32,30.21,30.09,10,2,10,0.00
2013-5-7,85.6,67.4,49.6,55.7,47.9,42.5,95,54,29,30.15,30.03,12,3,12,0.00
2013-5-8,85.1,67.6,56.5,69.9,49.2,0.0,76,54,32,30.09,29.09,6,2,6,0.87
2013-5-9,73.2,57.1,50.5,56.9,52.0,43.8,94,83,41,30.12,30.03,13,4,13,0.58
2013-5-10,75.6,64.2,43.9,44.8,17.2,-20.0,79,25,2,30.18,29.97,10,3,10,0.71
2013-5-11,58.8,34.5,0.0,48.7,16.5,0.0,97,22,25,30.27,29.14,19,7,19,1.18
2013-5-12,62.6,41.8,34.5,26.0,20.1,-10.6,57,45,5,30.41,30.24,13,4,13,1.18
2013-5-13,80.2,50.8,38.1,46.0,26.9,17.7,51,40,26,30.30,28.70,12,6,12,0.00
2013-5-14,106.2,67.4,54.1,60.5,45.3,-13.0,76,53,2,28.76,28.52,20,3,20,0.00
2013-5-15,89.2,74.6,62.6,50.5,47.7,0.0,59,40,25,29.00,28.70,11,3,12,0.00
2013-5-16,99.1,82.5,64.4,55.3,44.6,32.3,49,27,16,29.00,28.88,6,2,6,0.00
2013-5-17,65.8,58.3,54.9,57.7,52.1,36.2,98,83,34,29.09,28.97,6,1,6,0.00
2013-5-18,87.4,63.7,54.9,69.8,58.7,54.3,98,87,45,29.09,28.82,31,2,31,0.00
2013-5-19,86.7,70.0,63.0,70.4,64.8,62.4,98,85,53,28.88,28.61,16,3,16,0.00
2013-5-20,76.3,65.1,57.2,65.0,60.6,54.6,98,87,51,28.64,28.52,115,3,115,0.00
2013-5-21,71.4,59.3,50.9,62.7,56.2,50.4,98,90,58,28.79,28.55,1,1,1,0.00
2013-5-22,53.2,49.8,46.2,52.2,48.8,44.7,98,97,76,29.06,28.76,1,1,1,0.00
2013-5-23,76.8,57.8,43.7,45.3,36.5,25.0,92,51,22,29.44,29.06,10,1,10,0.00
2013-5-24,79.0,56.5,36.5,52.0,38.2,24.0,92,53,31,30.44,28.91,36,2,36,0.12
2013-5-25,61.2,56.0,52.3,51.5,47.8,40.7,95,75,56,30.39,30.33,19,6,19,0.05
2013-5-26,59.0,54.9,51.3,49.5,42.9,36.6,74,64,50,30.39,30.21,19,5,19,0.00
2013-5-27,62.8,57.2,53.2,54.5,51.7,0.0,98,82,67,30.15,29.97,19,3,19,0.00
2013-5-28,59.0,59.0,58.3,56.9,53.6,53.5,95,82,82,29.97,29.88,1,1,2,0.29
2013-5-29,80.8,64.8,52.5,73.4,61.7,52.0,98,90,64,29.94,29.71,13,2,13,0.45
2013-5-30,81.1,69.7,63.5,66.9,63.7,61.4,98,83,54,29.76,29.59,20,6,20,0.17
2013-5-31,81.7,69.8,61.5,62.9,56.1,49.2,97,65,38,29.68,29.59,23,5,23,0.16
2013-6-1,81.3,61.9,52.0,62.4,52.9,42.3,93,74,45,30.03,29.65,15,4,15,0.00
2013-6-2,73.8,60.5,49.8,43.4,40.5,37.3,72,50,33,30.21,30.03,14,4,14,0.00
2013-6-3,79.7,61.7,45.5,50.1,44.2,39.2,97,58,31,30.18,30.03,9,2,9,0.00
2013-6-4,65.8,60.6,54.5,55.2,49.3,42.9,96,67,50,30.18,30.09,10,3,14,0.00
2013-6-5,70.2,56.7,54.0,63.7,54.7,50.6,98,93,80,30.18,30.06,2,2,2,0.00
2013-6-9,70.2,63.9,59.2,63.9,61.0,57.3,97,90,79,30.06,28.82,5,1,5,0.00
2013-6-10,84.0,68.5,57.6,68.0,60.5,56.8,98,79,47,30.24,28.85,9,2,9,0.00
2013-6-11,86.9,68.9,56.7,72.9,63.8,56.1,98,85,58,28.97,28.85,9,1,9,0.00
2013-6-12,75.2,67.2,61.9,70.2,63.8,54.1,98,89,67,29.00,28.85,10,2,10,1.12
2013-6-13,87.3,72.1,57.7,57.8,52.8,48.7,78,53,34,29.17,29.00,12,2,12,0.30
2013-6-14,80.6,62.9,55.6,60.5,53.5,49.3,85,72,49,29.14,29.09,10,2,72,0.00
2013-6-17,88.2,78.7,65.5,63.7,54.9,51.8,94,46,32,29.12,29.00,10,2,10,0.16
2013-6-18,87.8,70.6,58.1,62.4,55.4,50.9,78,61,39,29.17,29.09,6,0,6,0.00
2013-6-19,93.6,75.1,59.7,64.7,57.4,52.6,86,58,32,30.03,29.12,11,2,229,0.00
2013-6-20,95.2,82.0,70.2,67.5,62.9,57.7,76,54,37,29.97,29.79,15,4,15,0.00
2013-6-21,85.8,72.8,64.2,71.2,66.3,62.8,98,82,51,29.94,29.71,23,4,23,0.04
2013-6-22,78.3,72.5,71.6,70.0,65.3,63.3,91,78,75,29.91,29.76,6,1,6,0.04
2013-6-23,89.6,76.2,68.0,71.0,67.5,63.2,98,77,46,29.82,29.62,16,5,16,0.04
2013-6-24,90.1,73.5,63.7,73.9,67.5,63.1,98,83,53,29.85,29.74,12,1,12,0.00
2013-6-25,92.5,77.9,65.3,74.4,69.2,63.7,96,77,51,29.76,29.62,0,0,573,0.00
2013-6-26,92.1,80.4,71.4,78.8,70.8,63.2,98,76,42,29.68,28.82,9,1,573,0.00
2013-6-27,89.8,85.3,73.6,67.0,59.1,52.7,63,42,30,28.94,28.88,18,6,18,0.00
2013-6-28,81.9,72.2,65.5,65.6,59.5,54.4,96,66,47,28.91,28.82,19,6,19,0.21
2013-6-29,83.7,70.0,62.1,64.3,57.3,46.0,98,69,36,29.06,28.82,13,4,13,0.33
2013-6-30,89.1,71.8,55.8,57.6,52.1,47.1,87,54,29,29.23,29.06,14,2,14,0.00
2013-7-1,93.4,75.3,57.9,63.4,56.7,51.2,94,59,30,29.26,29.17,10,1,10,0.00
2013-7-2,92.1,71.6,58.8,57.7,53.5,48.6,82,56,30,29.26,29.12,10,2,10,0.00
2013-7-3,95.9,75.2,57.2,62.5,55.8,47.3,96,58,26,29.17,29.00,8,2,8,0.65
2013-7-4,95.0,78.5,63.5,63.7,57.7,53.0,83,53,29,29.06,28.94,13,3,13,0.00
2013-7-5,92.3,79.3,68.0,66.6,60.8,56.4,71,55,38,29.00,28.88,17,5,19,0.00
2013-7-6,96.4,82.3,72.0,67.4,63.5,60.7,70,54,38,29.00,28.88,16,4,16,0.00
2013-7-7,100.4,82.6,73.4,73.1,68.1,62.8,86,63,38,28.97,28.88,12,3,12,0.00
2013-7-8,97.0,80.9,67.8,71.4,67.9,64.2,96,68,40,29.09,28.94,8,2,8,0.00
2013-7-9,89.1,78.7,68.9,74.2,69.9,64.8,98,76,55,29.03,28.82,1,1,1,0.83
2013-7-10,86.5,73.8,62.4,65.4,56.8,51.5,87,58,35,29.14,29.00,1,1,1,0.00
2013-7-11,92.8,76.4,59.4,67.5,58.9,54.2,98,61,32,29.20,29.06,1,1,1,0.05
2013-7-12,92.5,78.1,67.6,64.8,59.6,54.8,73,54,38,29.12,29.00,1,1,1,0.00
2013-7-13,82.8,74.3,64.2,70.8,63.2,57.3,98,69,55,29.14,29.00,15,4,15,4.32
2013-7-14,70.0,69.8,69.6,62.5,62.0,61.3,78,76,74,29.17,29.14,6,2,8,0.00
2013-7-15,97.0,93.1,69.3,67.9,65.8,63.2,81,41,38,29.32,29.17,10,4,10,3.04
2013-7-16,97.9,82.8,75.6,73.7,71.3,66.7,89,72,41,29.32,29.23,10,3,10,3.04
2013-7-17,98.6,86.3,71.6,74.4,71.5,67.7,96,64,40,29.35,29.20,10,2,10,0.00
2013-7-18,97.0,85.9,75.6,73.7,71.3,68.4,89,64,42,29.20,28.85,17,5,17,3.04
2013-7-19,88.3,81.2,73.2,73.0,65.9,57.2,90,62,38,29.00,28.82,18,6,18,3.08
2013-7-20,90.3,74.7,63.5,68.9,61.1,55.5,91,65,41,29.03,28.94,11,2,11,0.00
2013-7-21,86.2,69.8,58.5,68.9,60.2,52.0,97,73,52,29.03,28.94,10,2,10,0.29
2013-7-22,92.8,77.4,66.0,74.5,65.7,56.2,98,70,42,28.94,28.76,16,5,16,3.37
2013-7-23,84.6,70.6,59.4,58.1,53.9,49.1,90,59,35,29.12,28.94,10,3,10,0.00
2013-7-24,86.9,66.2,59.4,62.8,56.3,53.0,90,72,40,29.17,29.06,2,1,2,0.00
2013-7-25,89.1,75.4,60.6,70.5,62.8,58.3,97,68,41,29.09,29.00,11,2,11,0.00
2013-7-26,69.4,66.2,61.9,66.1,62.2,53.5,98,88,63,29.06,29.00,12,4,12,0.25
2013-7-28,64.8,60.4,57.4,53.8,51.5,49.7,86,73,58,29.14,29.09,4,0,4,0.25
2013-7-29,87.3,65.9,50.5,60.1,54.1,49.7,98,70,36,29.23,29.12,10,2,10,0.00
2013-7-30,79.7,67.8,62.6,69.5,62.1,55.5,97,82,66,29.20,29.11,6,1,6,0.00
2013-7-31,86.4,70.3,60.3,68.6,60.5,49.5,98,75,41,29.17,29.06,11,3,11,0.00
2013-8-1,91.0,70.9,53.2,63.4,54.9,51.6,96,62,32,29.15,28.94,9,2,9,0.00
2013-8-2,84.2,70.4,58.5,63.1,54.9,47.8,92,62,36,29.14,28.94,9,2,9,0.00
2013-8-3,85.3,68.5,52.5,61.7,52.3,45.9,98,62,32,29.29,29.12,13,2,13,0.00
2013-8-4,84.0,65.8,51.4,59.7,54.0,49.5,94,68,39,29.35,29.12,6,1,6,0.00
2013-8-5,88.7,70.2,60.4,72.0,63.5,56.0,98,81,49,29.12,28.88,10,2,10,0.00
2013-8-6,89.4,71.2,57.0,69.0,62.4,56.5,98,77,44,28.94,28.76,19,3,19,0.00
2013-8-7,82.8,71.6,60.4,61.7,55.3,49.8,98,63,34,29.09,28.88,12,4,12,0.00
2013-8-8,80.1,80.1,80.1,50.0,50.0,50.0,35,35,35,29.06,29.06,4,4,6,0.00
2013-8-9,80.6,73.0,62.8,54.7,51.5,47.8,73,48,36,29.20,29.06,13,4,13,0.00
2013-8-10,86.5,70.9,59.7,58.6,54.0,48.0,92,59,33,29.29,29.17,7,1,7,0.00
2013-8-21,86.0,81.3,74.5,77.9,74.5,62.9,95,80,52,29.06,28.97,5,3,5,0.00
2013-8-23,90.3,82.5,73.8,72.6,68.1,66.1,96,62,46,29.14,29.09,7,4,7,0.00
2013-8-24,92.3,82.6,70.5,73.4,70.2,66.0,86,68,50,29.14,29.00,19,7,19,0.00
2013-8-25,98.4,86.8,76.8,76.6,73.8,70.9,83,67,47,29.12,29.00,14,6,14,2.18
2013-8-26,99.7,86.6,76.5,78.1,75.3,72.7,91,71,46,29.09,28.91,13,4,13,1.93
2013-8-27,102.9,86.1,74.3,86.4,75.2,72.1,93,72,41,29.00,28.88,6,2,6,0.65
2013-8-28,99.9,78.2,69.4,73.8,71.1,68.8,98,83,43,29.09,29.00,4,1,4,0.40
2013-8-29,93.4,93.4,93.4,66.2,66.2,66.2,41,41,41,29.00,29.00,6,6,6,0.00
2013-9-2,93.4,59.4,52.2,73.5,52.1,50.1,98,79,41,29.14,29.00,6,2,6,0.44
2013-9-3,87.1,56.3,47.3,60.4,51.5,46.8,98,87,39,29.20,29.06,7,2,7,0.44
2013-9-4,95.4,74.2,57.7,69.8,61.7,56.4,98,70,37,29.26,29.06,7,2,7,0.44
2013-9-5,92.5,75.0,62.2,68.3,61.2,53.9,92,64,41,29.35,29.17,10,2,10,0.44
2013-9-6,95.2,78.2,68.7,70.8,66.7,61.7,97,72,37,29.20,28.94,15,4,15,0.48
2013-9-7,100.9,82.2,68.7,73.3,67.3,63.3,94,64,34,29.09,28.97,10,2,10,0.44
2013-9-8,85.1,72.0,65.8,68.2,63.8,60.3,89,76,54,29.14,28.97,115,3,115,0.44
2013-9-9,97.9,80.1,68.5,75.6,69.9,0.0,98,75,42,28.97,28.70,13,4,13,0.44
2013-9-10,85.5,75.2,66.9,72.0,65.6,60.3,97,74,47,29.09,28.82,7,3,7,0.00
2013-9-11,68.2,68.0,67.8,62.3,62.1,62.0,82,82,81,29.09,29.09,0,0,0,0.00
2013-9-14,67.8,58.3,56.1,62.1,55.6,50.9,98,91,60,29.09,28.94,10,2,10,0.50
2013-9-15,72.0,59.2,55.4,58.2,55.4,49.8,98,89,55,29.35,28.94,11,2,11,1.35
2013-9-17,67.3,60.0,54.7,59.2,56.2,0.0,98,88,58,29.38,29.03,12,4,13,1.35
2013-9-18,80.6,63.7,59.7,71.2,62.4,59.2,98,96,72,29.03,28.73,8,2,8,1.35
2013-9-19,82.6,69.3,58.1,70.3,63.3,53.0,94,82,59,28.91,28.73,11,3,11,0.21
2013-9-20,64.8,50.2,48.4,56.3,48.3,47.5,98,93,74,29.03,28.88,6,3,6,0.00
2013-9-21,50.7,49.3,48.6,48.5,47.8,47.5,98,94,90,29.03,29.00,4,3,6,0.00
2013-9-26,86.4,82.4,47.1,60.8,58.8,46.6,98,45,42,29.09,28.88,22,7,22,0.00
2013-9-27,88.7,79.4,69.4,62.2,60.6,57.9,75,53,41,28.94,28.88,23,6,23,0.00
2013-9-28,72.0,61.6,46.8,64.8,55.1,45.5,98,80,61,29.03,28.70,18,5,18,0.17
2013-9-29,46.8,46.5,46.2,45.7,45.4,45.0,96,96,96,29.03,29.00,3,2,3,0.00
2013-10-1,57.6,57.6,57.6,55.8,55.8,55.8,94,94,94,29.03,29.03,2,2,2,0.00
2013-10-2,69.1,57.9,45.9,57.1,55.0,43.0,98,92,39,29.03,28.91,10,3,10,0.33
2013-10-3,59.7,57.8,56.8,59.2,57.2,56.3,98,98,97,28.97,28.91,11,2,11,0.21
2013-10-11,75.9,69.1,58.6,61.8,55.8,51.4,97,65,46,28.91,28.73,26,9,26,0.21
2013-10-12,58.6,52.4,46.9,56.7,43.7,37.6,94,74,52,29.06,28.79,15,6,15,0.00
2013-10-23,57.9,35.2,32.7,37.3,23.8,0.0,100,65,46,29.17,22.68,14,4,14,1.37
2013-10-25,60.6,56.0,33.3,40.9,37.3,18.0,67,50,45,29.20,28.85,20,7,20,1.37
2013-10-26,51.8,45.0,37.2,40.3,29.0,25.1,69,54,44,29.17,22.68,14,9,14,1.37
2013-10-31,41.7,41.3,40.5,39.0,37.1,25.6,92,86,55,29.17,28.50,7,4,7,0.26
2013-11-3,47.8,46.6,39.9,39.4,32.6,31.4,98,59,53,28.97,28.47,24,6,24,0.13
2013-11-4,50.2,47.7,45.7,46.8,39.5,31.4,98,74,52,28.97,28.88,23,6,23,0.16
2013-11-6,47.5,36.0,29.5,42.0,24.1,21.6,83,63,45,29.26,28.94,11,4,11,0.46
2013-11-7,39.4,30.6,24.8,29.9,27.4,23.3,98,88,65,29.32,29.23,12,3,12,0.46
2013-11-8,46.6,35.7,23.5,40.8,26.6,23.1,98,73,48,29.26,28.67,24,6,24,0.46
2013-11-9,46.0,43.3,41.4,41.6,38.4,36.5,86,83,80,28.79,28.70,13,7,13,0.00
2013-11-10,46.2,38.7,32.4,36.7,27.3,24.0,81,64,50,29.44,28.79,11,3,11,0.46
2013-11-11,37.9,28.5,21.9,31.9,14.3,0.0,88,56,42,29.62,29.17,19,8,19,0.00
2013-11-14,51.3,41.1,22.6,36.7,31.8,5.5,77,70,47,29.62,28.85,9,4,9,0.00
2013-11-15,58.8,37.9,29.7,39.2,32.9,29.2,98,85,47,28.91,28.85,10,4,10,0.46
2013-11-16,60.6,46.7,41.7,50.4,45.5,38.6,98,96,44,28.38,28.29,12,3,12,0.62
2013-11-17,43.3,37.9,32.0,41.2,33.4,21.8,98,84,67,28.91,28.38,22,6,22,0.00
2013-11-18,39.0,31.5,27.9,22.8,19.0,0.0,100,60,47,29.26,28.91,24,9,24,0.00
2013-11-22,35.8,28.4,24.6,16.7,9.8,8.3,56,45,36,29.59,29.29,4,1,4,0.62
2013-11-23,24.6,16.4,7.0,11.2,-0.6,-6.1,56,47,38,29.94,29.59,0,0,0,0.62
2013-11-24,15.6,5.2,4.6,-3.4,-11.5,-12.0,45,45,42,29.82,29.74,4,3,4,0.00
2013-11-26,13.6,12.3,8.4,0.9,-1.5,-8.5,56,53,45,29.65,29.44,6,6,6,0.00
2013-11-27,13.6,13.6,13.6,0.9,0.9,0.9,56,56,56,29.44,29.44,6,6,6,0.00
2013-11-29,35.4,19.1,8.1,17.2,9.4,-4.4,83,66,46,29.59,29.26,13,3,13,0.00
2013-11-30,41.2,29.3,25.0,26.4,22.2,18.7,89,75,53,29.20,29.09,11,3,11,0.00
2013-12-1,30.6,30.6,30.6,30.1,30.1,30.1,98,98,98,28.76,28.76,4,4,4,0.00
2013-12-2,41.2,34.7,33.4,34.9,34.0,25.8,98,97,54,29.12,28.61,16,4,16,0.13
2013-12-3,35.6,34.6,32.0,35.1,34.1,31.5,98,98,97,28.88,28.61,10,2,10,0.00
2013-12-4,32.0,26.3,11.7,31.5,24.1,4.7,98,91,72,28.85,28.52,18,4,18,0.00
2013-12-5,11.8,6.6,-1.7,4.7,-0.2,-8.2,73,73,73,29.44,28.79,19,6,19,0.00
2013-12-6,9.1,-2.8,-8.1,2.1,-9.3,-14.5,73,73,73,29.71,29.41,12,4,12,0.00
2013-12-7,-8.0,-10.4,-13.7,-14.3,-16.7,-19.9,73,73,73,29.79,29.71,7,3,7,0.00
2013-12-8,11.1,10.7,2.1,1.3,1.0,-4.5,73,64,64,29.76,29.09,5,1,5,0.00
2013-12-9,10.4,1.0,-5.3,0.6,-8.3,-14.5,64,64,64,29.17,28.91,14,4,14,0.00
2013-12-10,14.5,8.5,2.7,10.1,1.2,-5.0,83,72,64,29.32,28.79,24,6,24,0.00
2013-12-11,6.8,-0.2,-9.0,0.1,-6.5,-15.1,74,74,74,29.62,29.32,17,5,17,0.00
2013-12-12,7.0,6.8,6.6,0.5,0.3,0.1,74,74,74,29.29,29.29,8,5,8,0.00
2013-12-13,20.5,15.4,6.6,7.8,5.5,0.1,76,65,55,29.29,29.17,12,3,12,0.00
2013-12-14,26.8,12.6,9.5,12.0,1.3,-1.4,72,60,52,29.32,29.12,8,3,8,0.00
2013-12-15,12.6,5.0,-1.3,0.6,-6.5,-12.7,58,58,58,29.20,29.11,9,4,9,0.00
2013-12-16,18.1,10.4,1.6,13.4,1.5,-9.8,92,67,58,29.20,28.97,13,3,13,0.00
2013-12-17,28.4,20.8,6.4,15.1,7.1,-4.1,91,55,50,29.17,29.00,24,8,24,0.00
2013-12-18,43.5,26.1,6.1,26.3,15.9,-4.5,90,66,50,29.14,28.70,20,4,20,0.00
2013-12-19,28.6,19.7,16.2,22.6,12.1,6.4,82,72,55,29.15,28.85,12,4,12,0.00
2013-12-20,21.6,17.9,15.1,13.2,11.7,9.6,87,77,63,29.09,28.91,7,2,7,0.00
2013-12-21,24.4,19.6,15.8,14.7,12.4,10.2,81,73,59,29.03,28.88,9,2,9,0.00
2013-12-22,21.4,14.1,2.5,14.4,7.6,-3.6,81,75,59,29.32,29.00,11,5,11,0.00
2013-12-23,2.8,-1.9,-9.4,-3.3,-7.8,-15.3,75,75,75,29.56,29.29,8,4,8,0.00
2013-12-24,12.4,-2.9,-16.1,6.0,-8.8,-21.6,75,75,75,29.56,29.17,17,3,17,0.00
2013-12-25,33.4,20.3,9.7,24.5,11.0,3.4,89,68,48,29.23,29.09,16,5,16,0.00
2013-12-26,33.1,20.1,9.0,22.6,13.9,3.8,94,77,63,29.23,29.11,5,1,5,0.00
2013-12-27,44.1,23.6,13.5,30.5,18.5,11.6,98,83,54,29.23,28.97,15,4,15,0.00
2014-1-1,30.2,0.8,-0.6,29.2,-6.8,-8.3,96,70,69,29.50,29.03,6,3,6,0.00
2014-1-2,10.6,-1.3,-11.7,2.4,-9.0,-19.0,69,69,69,29.59,29.47,7,3,7,0.00